Regional Weather Roundup
Issued by NWS

Home | Current Version | Previous Version | Graphics & Text | Print | Product List | Glossary On
Versions: 1 2 3 4 5 6 7 8 9 10 11 12 13 14 15 16 17 18 19 20 21 22 23 24 25 26 27 28 29 30 31 32 33 34 35 36 37 38 39 40 41 42 43 44 45 46 47 48 49 50
000
ASUS43 KIND 280309
RWRIN

WEATHER ROUNDUP FOR INDIANA
NATIONAL WEATHER SERVICE INDIANAPOLIS IN
1000 PM EST SAT DEC 27 2014

NOTE: "FAIR" INDICATES FEW OR NO CLOUDS BELOW 12,000 FEET WITH NO
SIGNIFICANT WEATHER AND/OR OBSTRUCTIONS TO VISIBILITY.

* - STATION DOES NOT REPORT WEATHER SUCH AS PRECIPITATION OR FOG.

+ - STATION NOT QUALITY CONTROLLED BY THE NATIONAL WEATHER SERVICE.
    USE DATA WITH CAUTION...ESPECIALLY DEWPOINT AND RELATIVE
    HUMIDITY OBSERVATIONS.

INZ001>003-010>013-019-020-280400-
NORTHWEST INDIANA

CITY           SKY/WX    TMP DP  RH WIND       PRES   REMARKS
GARY /AIRPORT/ CLOUDY    36  24  60 W15       30.11S
KNOX *+        CLOUDY    33  26  75 W9        30.09S WCI  26
LA PORTE +     CLOUDY    36  31  82 NW8       30.09R
MICHIGAN CITY+ CLOUDY    34  25  69 W9        30.09S WCI  26
MONTICELLO +   CLOUDY    33  31  92 W8        30.11R WCI  26
RENSSELAER +   CLOUDY    34  32  93 W10G17    30.11S WCI  26
VALPARAISO     CLOUDY    33  27  78 W10       30.10R WCI  25

$$

LMZ046-743>745-280400-
SOUTHERN LAKE MICHIGAN

STATION/POSITION TIME  TEMP WIND        PRES
                       AIR  DIR/SP/G
                 (UTC) (F)  (DEG/KT/KT) (MB)
MICHIGAN CITY    0300   35  270/ 18/ 20   N/A

$$

INZ004-005-014>016-021>024-280400-
NORTH CENTRAL INDIANA

CITY           SKY/WX    TMP DP  RH WIND       PRES   REMARKS
GOSHEN         CLOUDY    36  31  82 W9        30.06S
LOGANSPORT +   CLOUDY    32  32 100 W8        30.11S WCI  25
PERU/GRISSOM   LGT SNOW  33  33 100 W10       30.09S FOG     WCI  24
ROCHESTER +    CLOUDY    36  32  87 W9        30.09R
SOUTH BEND     NOT AVBL
WARSAW +       CLOUDY    34  32  93 W9        30.07R WCI  26

$$

INZ006>009-017-018-025>027-280400-
NORTHEAST INDIANA

CITY           SKY/WX    TMP DP  RH WIND       PRES   REMARKS
ANGOLA *+      CLOUDY    36  32  87 W7        30.03F
AUBURN +       LGT SNOW  34  32  93 SW5       30.05F WCI  30
FORT WAYNE     LGTSLEET  34  32  92 W12       30.08S FOG     WCI  25
HUNTINGTON +   LGT SNOW  33  29  88 W8        30.09R WCI  25

$$

INZ028-029-035-036-043>045-051>053-280400-
WEST CENTRAL INDIANA

CITY           SKY/WX    TMP DP  RH WIND       PRES   REMARKS
GREENCASTLE +  LGT RAIN  36  32  87 CALM      30.12F
LAFAYETTE      CLOUDY    32  31  96 W6        30.12S WCI  26
TERRE HAUTE    LGT RAIN  36  34  92 NW6       30.13F

$$

INZ030>032-037>040-046>048-054>057-064-065-280400-
CENTRAL INDIANA

CITY           SKY/WX    TMP DP  RH WIND       PRES   REMARKS
CP ATTERBURY + RAIN      43  41  93 MISG      30.11R
COLUMBUS       RAIN      43  41  93 NW10      30.11R FOG
FRANKFORT +    LGT SNOW N/A N/A N/A W7        30.13S
INDIANAPOLIS   LGT RAIN  36  35  96 NW8       30.10R FOG
-EAGLE CREEK   LGT RAIN  36  35  96 NW10      30.10R
KOKOMO *+      CLOUDY    34  28  80 W13       30.11R WCI  25
MARION +       LGT RAIN  34  32  92 NW16      30.11R WCI  24
MT COMFORT *+  CLOUDY    37 N/A N/A NW9       30.11R
SHELBYVILLE    LGT RAIN  41  38  89 NW8       30.09S
ZIONSVILLE +   RAIN      37  33  87 NW9       30.11R

$$

INZ033-034-041-042-049-050-058-059-280400-
EAST CENTRAL INDIANA

CITY           SKY/WX    TMP DP  RH WIND       PRES   REMARKS
MUNCIE         LGT RAIN  39  37  92 NW9       30.08S FOG

$$

INZ060-061-067>069-081>083-085>088-280400-
SOUTHWEST INDIANA

CITY           SKY/WX    TMP DP  RH WIND       PRES   REMARKS
EVANSVILLE     LGT RAIN  43  40  89 NW8       30.16R FOG
HUNTINGBURG *+ CLOUDY    43  39  87 N9        30.14R
WASHINGTON +   DRIZZLE   39  36  87 N12       30.14F

$$

INZ062-063-066-070>080-084-089>092-280400-
SOUTH CENTRAL AND SOUTHEAST INDIANA

CITY           SKY/WX    TMP DP  RH WIND       PRES   REMARKS
BLOOMINGTON    RAIN      39  37  92 VRB7      30.10F

$$




USA.gov is the U.S. government's official web portal to all federal, state and local government web resources and services.